EDT,Max TemperatureF,Mean TemperatureF,Min TemperatureF,Max Dew PointF,MeanDew PointF,Min DewpointF,Max Humidity, Mean Humidity, Min Humidity, Max Sea Level PressureIn, Mean Sea Level PressureIn, Min Sea Level PressureIn, Max VisibilityMiles, Mean VisibilityMiles, Min VisibilityMiles, Max Wind SpeedMPH, Mean Wind SpeedMPH, Max Gust SpeedMPH,PrecipitationIn, CloudCover, Events, WindDirDegrees
2011-9-1,91,83,75,76,73,71,94,83,56,30.07,30.01,29.97,10,9,2,30,5,37,0.41,2,Rain-Thunderstorm,82
2011-9-2,90,83,75,76,74,72,94,86,56,30.00,29.96,29.91,10,9,1,14,4,17,1.09,4,Rain-Thunderstorm,108
2011-9-3,90,83,75,76,73,71,94,81,59,29.94,29.90,29.87,10,8,0,21,5,29,1.90,2,Fog-Rain,100
2011-9-4,92,84,75,77,75,73,94,76,59,29.93,29.89,29.85,10,10,10,14,6,20,0.00,0,,166
2011-9-5,91,85,79,77,76,75,91,74,64,29.91,29.86,29.83,10,10,10,20,8,29,T,3,,181
2011-9-6,87,81,75,79,75,71,94,88,74,29.95,29.89,29.81,10,6,1,21,7,28,2.36,5,Fog-Rain-Thunderstorm,166
2011-9-7,90,83,76,77,74,68,100,81,59,29.96,29.92,29.89,10,10,9,24,4,33,0.00,1,,150
2011-9-8,90,83,76,77,74,70,94,79,55,29.96,29.92,29.89,10,9,2,16,5,21,0.21,2,Rain,238
2011-9-9,92,85,77,76,74,72,94,80,59,30.00,29.94,29.91,10,10,9,20,5,24,0.00,1,,182
2011-9-10,92,84,76,75,73,70,94,73,49,30.03,29.97,29.93,10,10,10,13,4,17,0.00,1,,286
2011-9-11,95,86,77,75,72,66,94,69,46,30.08,30.03,29.99,10,10,10,20,3,29,T,1,Thunderstorm,344
2011-9-12,94,86,77,74,73,71,88,72,52,30.08,30.02,29.95,10,10,10,14,5,17,0.00,2,,28
2011-9-13,93,84,75,74,72,65,94,76,48,30.01,29.96,29.91,10,10,10,23,5,28,0.00,4,Thunderstorm,66
2011-9-14,93,84,74,73,68,60,94,65,36,29.96,29.93,29.89,10,10,7,13,4,16,0.00,2,,54
2011-9-15,91,82,73,71,69,65,93,68,41,30.02,29.97,29.92,10,10,10,15,4,22,0.00,1,,324
2011-9-16,93,84,75,73,70,65,87,66,41,30.08,30.03,29.99,10,10,8,12,2,14,0.00,3,,340
2011-9-17,92,83,73,72,69,63,93,67,38,30.09,30.04,29.99,10,10,10,15,6,18,0.00,2,,71
2011-9-18,92,83,74,74,70,67,87,68,47,30.09,30.03,29.96,10,10,10,16,6,22,0.01,2,Rain,76
2011-9-19,94,84,74,74,73,69,94,80,49,30.02,29.96,29.90,10,8,1,17,4,23,0.98,4,Rain-Thunderstorm,128
2011-9-20,92,84,76,75,73,70,94,75,52,30.00,29.95,29.91,10,10,10,14,6,18,0.00,1,Thunderstorm,102
2011-9-21,93,85,77,77,74,72,91,78,56,30.03,29.96,29.92,10,9,1,15,6,17,0.20,4,Rain-Thunderstorm,92
2011-9-22,89,82,75,77,74,71,94,88,59,30.03,29.99,29.96,10,8,0,18,5,26,1.10,2,Fog-Rain-Thunderstorm,102
2011-9-23,88,82,76,77,75,73,94,80,63,30.00,29.95,29.89,10,9,2,14,2,22,0.27,2,Rain-Thunderstorm,174
2011-9-24,89,83,77,78,75,73,94,81,63,29.96,29.92,29.87,10,9,0,17,3,22,0.45,3,Rain-Thunderstorm,341
2011-9-25,89,82,75,79,75,73,94,86,80,29.97,29.93,29.89,10,8,1,16,4,20,0.91,5,Rain-Thunderstorm,269
2011-9-26,79,77,75,75,74,73,94,92,91,29.99,29.94,29.90,10,10,6,10,4,15,0.04,4,Rain-Thunderstorm,153
2011-9-27,89,82,74,74,73,72,100,82,59,29.96,29.93,29.90,10,8,0,16,4,18,0.00,2,Fog,94
2011-9-28,93,84,74,75,73,70,94,75,49,29.94,29.89,29.83,10,10,10,13,3,15,0.00,2,,36
2011-9-29,91,83,75,74,72,66,94,72,49,29.89,29.85,29.80,10,10,10,15,5,18,T,3,Rain-Thunderstorm,60
2011-9-30,90,83,75,73,71,68,88,74,53,29.86,29.82,29.76,10,10,10,17,6,22,0.00,0,,323